CW7104 Weather Reports


time (UTC)temp
F
wind
direction
speed
knots
gust
knots
rain 1hr
in
rain 24hr
in
rain mn
in
humidity
%
barometer
mb
20200803150903 67 256 0.0 1.7 0.28 0.63 0.60 90 1014.8
20200803150403 67 256 0.0 1.7 0.25 0.60 0.57 90 1014.7
20200803145904 66 256 0.0 0.0 0.22 0.56 0.53 90 1014.6
20200803145403 66 256 0.0 0.0 0.19 0.53 0.49 90 1014.4
20200803144903 66 256 0.0 0.0 0.17 0.49 0.46 90 1014.3
20200803144403 66 256 0.0 7.8 0.13 0.45 0.42 90 1014.2
20200803143903 65 256 0.0 7.8 0.11 0.42 0.39 90 1014.1
20200803143403 65 68 4.3 13.0 0.07 0.38 0.35 90 1013.9
20200803142903 67 139 1.7 13.0 0.05 0.36 0.33 90 1014.4
20200803142403 68 161 2.6 10.4 0.05 0.35 0.32 90 1015.0
20200803141904 68 142 0.0 0.9 0.05 0.35 0.32 90 1014.6
20200803141404 68 141 0.0 0.9 0.06 0.35 0.32 90 1014.5
20200803140903 68 141 0.0 0.0 0.05 0.34 0.31 90 1014.3
20200803140403 68 141 0.0 2.6 0.05 0.34 0.31 90 1014.3
20200803135903 68 142 0.0 2.6 0.05 0.33 0.30 90 1014.4
20200803135403 68 161 0.0 0.0 0.05 0.33 0.30 90 1014.4
20200803134903 68 161 0.0 0.0 0.04 0.32 0.29 90 1014.5
20200803134404 68 161 0.0 0.0 0.05 0.32 0.29 90 1014.4
20200803133904 68 161 0.0 0.0 0.04 0.31 0.28 90 1014.4
20200803133403 68 161 0.0 0.0 0.04 0.31 0.28 90 1014.4
20200803132903 68 161 0.0 0.0 0.05 0.31 0.28 90 1014.4
20200803132403 68 161 0.0 0.0 0.04 0.30 0.27 90 1014.4
20200803131903 68 161 0.0 0.0 0.05 0.30 0.27 90 1014.4
20200803131403 68 161 0.0 0.0 0.04 0.29 0.26 90 1014.3
20200803130903 68 161 0.0 0.0 0.04 0.29 0.26 90 1014.2
20200803130403 68 161 0.0 0.0 0.04 0.29 0.26 90 1014.2
20200803125903 68 161 0.0 0.0 0.03 0.28 0.25 90 1014.1
20200803125403 68 161 0.0 0.0 0.03 0.28 0.25 90 1014.0
20200803124904 68 161 0.0 0.0 0.04 0.28 0.25 90 1014.0
20200803124403 68 161 0.0 0.0 0.03 0.27 0.24 90 1014.0
20200803123904 68 161 0.0 0.0 0.03 0.27 0.24 90 1014.0
20200803123404 68 161 0.0 0.0 0.04 0.27 0.24 90 1014.0
20200803122903 67 161 0.0 0.0 0.03 0.26 0.23 90 1014.1
20200803122404 67 161 0.0 0.0 0.04 0.26 0.23 90 1014.1
20200803121904 67 161 0.0 0.0 0.03 0.25 0.22 90 1014.1
20200803121403 67 161 0.0 0.0 0.03 0.25 0.22 90 1014.1
20200803120903 67 161 0.0 0.0 0.03 0.25 0.22 90 1014.1
20200803120404 67 161 0.0 0.0 0.04 0.25 0.22 90 1013.9
20200803115904 66 161 0.0 0.0 0.04 0.25 0.22 90 1013.9
20200803115403 66 161 0.0 0.0 0.05 0.25 0.22 90 1013.8
20200803114904 66 161 0.0 0.9 0.04 0.24 0.21 90 1013.7
20200803114403 66 161 0.0 1.7 0.04 0.24 0.21 90 1013.7
20200803113905 66 161 0.0 1.7 0.05 0.24 0.21 90 1013.7
20200803112903 66 198 0.0 1.7 0.04 0.23 0.20 90 1013.8
20200803112403 66 241 0.0 0.9 0.04 0.22 0.19 90 1013.8
20200803111903 66 265 0.0 0.0 0.04 0.23 0.19 90 1013.8
20200803111404 66 265 0.0 2.6 0.04 0.23 0.19 90 1013.8
20200803110904 66 149 0.0 2.6 0.05 0.23 0.19 90 1013.8
20200803110404 66 160 0.0 2.6 0.04 0.22 0.18 90 1013.9
20200803105904 66 160 0.0 0.0 0.04 0.22 0.18 90 1013.9
20200803105403 66 157 0.0 0.0 0.04 0.21 0.17 90 1013.8
20200803104903 66 157 0.0 0.0 0.04 0.21 0.17 90 1013.9
20200803104403 66 157 0.0 0.0 0.04 0.21 0.17 90 1013.9
20200803103904 66 158 0.0 0.0 0.04 0.20 0.16 90 1014.0
20200803103404 66 158 0.0 0.0 0.04 0.20 0.16 90 1013.9
20200803102903 66 158 0.0 0.0 0.05 0.20 0.16 90 1013.8
20200803102403 66 158 0.0 0.0 0.04 0.19 0.15 90 1013.7
20200803101903 66 158 0.0 4.3 0.04 0.19 0.15 90 1013.6
20200803101403 66 158 0.0 4.3 0.05 0.19 0.15 90 1013.5
20200803100903 66 160 0.0 2.6 0.04 0.18 0.14 90 1013.6
20200803100404 66 160 0.0 2.6 0.05 0.18 0.14 90 1013.7
20200803095904 66 160 0.0 0.0 0.05 0.18 0.14 90 1013.7
20200803095404 66 160 0.0 0.0 0.04 0.18 0.13 90 1013.6
20200803094903 66 160 0.0 0.0 0.05 0.18 0.13 90 1013.5
20200803094404 66 160 0.0 0.0 0.05 0.18 0.13 90 1013.3
20200803093903 66 160 0.0 0.0 0.05 0.17 0.12 90 1013.3
20200803093404 66 160 0.0 0.0 0.05 0.17 0.12 90 1013.4
20200803092904 66 160 0.0 1.7 0.04 0.16 0.11 90 1013.4
20200803092404 66 160 0.0 2.6 0.04 0.16 0.11 90 1013.3
20200803091903 66 161 0.9 2.6 0.05 0.16 0.11 90 1013.1
20200803091403 67 163 0.0 0.0 0.04 0.15 0.10 90 1013.0
20200803090905 67 163 0.0 0.0 0.04 0.15 0.10 90 1012.9
20200803090405 67 163 0.0 0.0 0.04 0.14 0.09 90 1012.8
20200803085904 67 163 0.0 0.0 0.04 0.14 0.09 90 1012.8
20200803085403 67 163 0.0 0.0 0.04 0.14 0.09 90 1012.9
20200803084903 67 163 0.0 0.0 0.03 0.13 0.08 90 1012.9
20200803084403 67 163 0.0 0.0 0.03 0.13 0.08 90 1012.9
20200803083904 68 164 0.0 1.7 0.02 0.12 0.07 90 1013.0
20200803083403 68 164 0.0 4.3 0.02 0.12 0.07 90 1013.2
20200803082903 68 178 0.0 5.2 0.02 0.12 0.07 90 1013.3
20200803082403 68 188 0.0 5.2 0.02 0.12 0.07 90 1013.3
20200803081903 68 165 0.9 4.3 0.02 0.12 0.06 90 1013.2
20200803081404 68 186 0.9 4.3 0.02 0.12 0.06 90 1013.2
20200803080903 68 205 0.0 0.9 0.02 0.12 0.06 90 1013.2
20200803080403 68 205 0.0 0.9 0.01 0.11 0.05 90 1013.1
20200803075903 68 205 0.0 0.0 0.01 0.11 0.05 90 1013.0
20200803075404 68 205 0.0 0.0 0.01 0.11 0.05 90 1013.0
20200803074903 68 205 0.0 0.0 0.02 0.11 0.05 90 1013.0
20200803074403 68 205 0.0 0.0 0.02 0.11 0.05 90 1013.1
20200803073904 68 205 0.0 0.0 0.02 0.11 0.05 90 1013.2
20200803073403 68 205 0.0 0.0 0.02 0.11 0.05 90 1013.2
20200803072903 68 205 0.0 0.0 0.02 0.11 0.05 90 1013.2
20200803072403 68 205 0.0 0.0 0.02 0.11 0.05 90 1013.2
20200803071903 68 205 0.0 0.0 0.02 0.10 0.04 90 1013.3
20200803071404 69 205 0.0 0.0 0.02 0.11 0.04 90 1013.2
20200803070904 69 205 0.0 0.0 0.02 0.11 0.04 90 1013.2
20200803070403 69 205 0.0 0.9 0.02 0.11 0.04 90 1013.2
20200803065904 69 220 0.0 0.9 0.02 0.11 0.04 90 1013.2
20200803065403 69 242 0.0 0.9 0.03 0.11 0.04 90 1013.2
20200803064904 69 258 0.0 0.0 0.02 0.10 0.03 90 1013.2
20200803064404 69 258 0.0 0.0 0.02 0.10 0.03 90 1013.1
20200803063903 69 258 0.0 0.0 0.02 0.10 0.03 90 1013.0
20200803063403 68 258 0.0 0.0 0.02 0.10 0.03 90 1013.1
20200803062904 68 258 0.0 0.0 0.02 0.10 0.03 90 1012.9
20200803062404 68 258 0.0 0.0 0.02 0.10 0.03 89 1012.9
20200803061904 68 258 0.0 0.0 0.01 0.09 0.02 89 1012.8
20200803061403 68 258 0.0 0.0 0.01 0.09 0.02 89 1012.9
20200803060903 68 258 0.0 0.0 0.02 0.10 0.02 89 1012.9
20200803060404 69 258 0.0 0.0 0.02 0.10 0.02 89 1013.0
20200803055903 69 258 0.0 0.0 0.02 0.10 0.02 89 1013.0
20200803055405 69 258 0.0 0.0 0.01 0.09 0.01 89 1013.0
20200803054904 69 258 0.0 0.0 0.01 0.09 0.01 89 1013.0
20200803054403 69 258 0.0 0.0 0.01 0.09 0.01 89 1013.0
20200803053904 69 258 0.0 0.0 0.01 0.09 0.01 88 1013.2
20200803053403 70 258 0.0 0.0 0.01 0.09 0.01 88 1013.2
20200803052903 70 263 0.0 0.0 0.01 0.09 0.01 88 1013.3
20200803052404 70 263 0.0 0.0 0.01 0.09 0.01 88 1013.4
20200803051903 70 263 0.0 4.3 0.01 0.10 0.01 87 1013.4
20200803051404 71 262 0.0 7.8 0.01 0.10 0.01 87 1013.5
20200803050903 71 245 1.7 7.8 0.00 0.09 0.00 88 1013.6
20200803050404 71 251 0.0 4.3 0.00 0.09 0.00 88 1013.7
20200803045904 71 251 1.7 4.3 0.00 0.09 0.09 88 1013.5
20200803045404 71 210 0.0 0.0 0.00 0.09 0.09 88 1013.1
20200803044904 72 210 0.0 0.0 0.00 0.09 0.09 87 1013.1
20200803044403 72 210 0.0 0.0 0.00 0.09 0.09 87 1013.2
20200803043903 72 208 0.0 0.0 0.00 0.09 0.09 87 1013.1
20200803043403 72 208 0.0 0.0 0.00 0.09 0.09 87 1013.1
20200803042903 72 208 0.0 0.0 0.00 0.09 0.09 87 1013.0
20200803042403 72 208 0.0 0.0 0.00 0.10 0.09 87 1013.1
20200803041903 72 208 0.0 0.0 0.00 0.10 0.09 86 1013.2
20200803041403 72 208 0.0 0.0 0.00 0.10 0.09 86 1013.3
20200803040904 73 208 0.0 0.0 0.00 0.10 0.09 85 1013.3
20200803040403 72 208 0.0 0.0 0.00 0.10 0.09 85 1013.3
20200803035903 73 208 0.0 0.0 0.00 0.10 0.09 84 1013.3
20200803035403 73 208 0.0 0.0 0.00 0.10 0.09 84 1013.3
20200803034903 73 208 0.0 0.0 0.00 0.10 0.09 84 1013.3
20200803034403 73 209 0.0 0.0 0.00 0.11 0.09 84 1013.3
20200803033904 73 208 0.0 0.0 0.00 0.11 0.09 84 1013.3
20200803033404 73 209 0.0 0.0 0.00 0.11 0.09 84 1013.3
20200803032904 73 209 0.0 0.9 0.00 0.11 0.09 84 1013.3
20200803032404 73 209 0.0 0.9 0.00 0.11 0.09 84 1013.4
20200803031904 73 208 0.0 0.0 0.00 0.11 0.09 84 1013.5
20200803031403 73 208 0.0 0.0 0.00 0.11 0.09 84 1013.5
20200803030903 73 209 0.0 0.0 0.00 0.11 0.09 84 1013.4
20200803030404 73 209 0.0 0.0 0.00 0.11 0.09 83 1013.3
20200803025903 73 209 0.0 0.0 0.00 0.11 0.09 83 1013.4
20200803025404 73 209 0.0 0.0 0.00 0.11 0.09 83 1013.3
20200803024904 73 209 0.0 0.0 0.00 0.12 0.09 83 1013.3
20200803024403 73 209 0.0 0.0 0.00 0.12 0.09 83 1013.3
20200803023904 73 209 0.0 0.0 0.00 0.12 0.09 83 1013.3
20200803023404 73 209 0.0 0.0 0.00 0.12 0.09 83 1013.3
20200803022904 73 209 0.0 0.0 0.00 0.12 0.09 83 1013.3
20200803022404 73 209 0.0 0.0 0.00 0.12 0.09 82 1013.2
20200803021904 73 209 0.0 0.0 0.00 0.12 0.09 82 1013.2
20200803021404 73 209 0.0 0.0 0.00 0.12 0.09 82 1013.1
20200803020904 73 209 0.0 0.0 0.00 0.13 0.09 82 1013.0
20200803020404 73 209 0.0 0.0 0.00 0.13 0.09 81 1012.9
20200803015904 74 209 0.0 0.0 0.00 0.13 0.09 81 1012.8
20200803015405 74 209 0.0 0.0 0.00 0.13 0.09 81 1012.7
20200803014904 74 209 0.0 0.0 0.00 0.13 0.09 80 1012.7
20200803014404 74 209 0.0 0.9 0.00 0.13 0.09 80 1012.7
20200803013904 74 209 0.0 0.9 0.00 0.13 0.09 79 1012.7
20200803013404 74 196 0.0 0.9 0.00 0.13 0.09 79 1012.7
20200803012903 75 188 0.0 1.7 0.00 0.13 0.09 79 1012.7
20200803012404 75 188 0.0 1.7 0.00 0.14 0.09 79 1012.8
20200803011904 75 204 0.0 0.0 0.00 0.14 0.09 78 1012.7
20200803011404 75 240 0.0 0.0 0.00 0.14 0.09 78 1012.8
20200803010904 75 240 0.0 0.0 0.00 0.14 0.09 78 1012.8
20200803010404 75 240 0.0 0.0 0.00 0.14 0.09 77 1012.8
20200803005903 75 240 0.0 0.9 0.00 0.14 0.09 77 1012.7
20200803005403 76 240 0.0 0.9 0.00 0.14 0.09 76 1012.8
20200803004903 76 240 0.0 0.0 0.00 0.15 0.09 76 1012.9
20200803004403 76 240 0.0 0.0 0.00 0.15 0.09 75 1012.9
20200803003903 76 246 0.0 0.0 0.00 0.15 0.09 75 1012.8
20200803003404 76 246 0.0 0.0 0.00 0.15 0.09 74 1012.8
20200803002903 76 246 0.0 0.0 0.00 0.15 0.09 74 1012.7
20200803002403 77 246 0.0 0.0 0.00 0.15 0.09 73 1012.6
20200803001904 77 246 0.0 0.0 0.00 0.16 0.09 73 1012.6
20200803001403 77 246 0.0 0.0 0.00 0.16 0.09 72 1012.7
20200803000903 77 246 0.0 0.0 0.00 0.16 0.09 72 1012.7
20200803000403 78 246 0.0 0.9 0.00 0.16 0.09 71 1012.6
20200802235903 78 246 0.0 0.9 0.00 0.16 0.09 70 1012.6
20200802235404 78 246 0.0 0.0 0.00 0.16 0.09 71 1012.6
20200802234903 78 246 0.0 0.9 0.00 0.17 0.09 70 1012.5
20200802234403 78 246 0.0 4.3 0.00 0.17 0.09 69 1012.5
20200802233904 78 246 0.0 4.3 0.00 0.17 0.09 69 1012.5
20200802233404 78 223 0.0 4.3 0.00 0.17 0.09 70 1012.5
20200802232903 79 269 0.0 0.9 0.00 0.17 0.09 70 1012.5
20200802232404 79 231 0.0 0.9 0.00 0.18 0.09 72 1012.4
20200802231903 78 230 0.0 1.7 0.00 0.18 0.09 72 1012.4
20200802231404 78 231 0.0 1.7 0.00 0.18 0.09 71 1012.5
20200802230904 78 200 0.0 0.0 0.00 0.18 0.09 72 1012.3
20200802230405 78 200 0.0 0.0 0.00 0.18 0.09 73 1012.3
20200802225904 78 228 0.0 0.0 0.00 0.19 0.09 72 1012.3
20200802225404 78 169 0.0 0.0 0.00 0.19 0.09 74 1012.1
20200802224904 78 246 0.0 0.0 0.00 0.19 0.09 73 1012.1
20200802224404 78 190 0.0 0.0 0.00 0.19 0.09 73 1012.1
20200802223904 78 221 0.0 5.2 0.00 0.20 0.09 72 1012.2
20200802223405 79 192 0.0 5.2 0.00 0.20 0.09 72 1012.2
20200802222904 79 251 0.0 5.2 0.00 0.20 0.09 72 1012.2
20200802222403 79 242 0.0 0.9 0.00 0.20 0.09 72 1012.3
20200802221904 79 250 0.0 2.6 0.00 0.21 0.09 72 1012.3
20200802221404 79 250 0.0 2.6 0.00 0.21 0.09 71 1012.3
20200802220903 79 252 0.0 2.6 0.00 0.21 0.09 72 1012.3
20200802220404 79 299 0.0 0.9 0.00 0.21 0.09 72 1012.3
20200802215904 79 243 0.0 6.1 0.00 0.22 0.09 73 1012.2
20200802215403 78 261 0.0 7.8 0.00 0.22 0.09 73 1012.3
20200802214903 78 258 2.6 7.8 0.00 0.22 0.09 72 1012.3
20200802214404 78 256 0.9 6.1 0.00 0.23 0.09 73 1012.3
20200802213904 78 254 2.6 7.0 0.00 0.23 0.09 73 1012.2
20200802213403 78 263 2.6 7.0 0.00 0.23 0.09 73 1012.2
20200802212904 78 254 1.7 10.4 0.00 0.24 0.09 73 1012.2
20200802212404 78 273 4.3 10.4 0.00 0.24 0.09 72 1012.1
20200802211904 78 257 3.5 8.7 0.00 0.24 0.09 72 1012.2
20200802211404 79 294 5.2 8.7 0.00 0.25 0.09 70 1012.1
20200802210903 81 260 3.5 13.0 0.00 0.25 0.09 69 1012.1
20200802210403 82 275 5.2 13.0 0.00 0.25 0.09 64 1012.0
20200802205903 84 192 0.0 4.3 0.00 0.26 0.09 63 1011.9
20200802205403 84 194 0.0 6.1 0.00 0.26 0.09 63 1011.9
20200802204904 85 224 0.0 6.1 0.00 0.27 0.09 62 1012.0
20200802204404 85 144 1.7 5.2 0.00 0.27 0.09 62 1012.0
20200802203904 85 146 0.0 5.2 0.00 0.27 0.09 62 1012.1
20200802203404 84 246 0.0 5.2 0.00 0.28 0.09 63 1012.1
20200802202904 83 155 0.0 2.6 0.00 0.28 0.09 67 1012.1
20200802202404 82 160 0.0 5.2 0.00 0.29 0.09 68 1012.2
20200802201904 81 158 1.7 5.2 0.00 0.29 0.09 68 1012.2
20200802201405 81 183 0.0 7.0 0.00 0.29 0.09 68 1012.3
20200802200904 81 193 1.7 7.0 0.00 0.30 0.09 68 1012.2
20200802200405 81 187 0.9 7.8 0.00 0.30 0.09 68 1012.2
20200802195904 81 210 0.9 7.8 0.00 0.31 0.09 66 1012.1
20200802195403 82 245 1.7 7.0 0.00 0.31 0.09 65 1012.2
20200802194904 82 237 0.9 7.0 0.00 0.32 0.09 63 1012.2
20200802194404 82 172 2.6 7.0 0.00 0.32 0.09 63 1012.2
20200802193903 83 174 2.6 6.1 0.00 0.33 0.09 63 1012.3
20200802193404 83 168 1.7 6.1 0.00 0.33 0.09 61 1012.4
20200802192903 84 199 0.9 6.1 0.00 0.34 0.09 61 1012.4
20200802192404 85 174 2.6 10.4 0.01 0.35 0.09 62 1012.5
20200802191904 85 164 1.7 10.4 0.01 0.35 0.09 61 1012.5
20200802191404 85 182 2.6 7.0 0.01 0.36 0.09 61 1012.5
20200802190905 85 188 0.0 6.1 0.01 0.36 0.09 61 1012.5
20200802190403 85 212 0.9 5.2 0.01 0.37 0.09 61 1012.6
20200802185903 84 181 0.0 6.1 0.01 0.38 0.09 64 1012.6
20200802185403 84 167 2.6 7.0 0.01 0.38 0.09 65 1012.6
20200802184903 83 173 0.0 8.7 0.01 0.39 0.09 63 1012.6
20200802184404 83 193 4.3 8.7 0.01 0.40 0.09 60 1012.6
20200802183904 84 219 0.9 7.8 0.01 0.40 0.09 61 1012.6
20200802183404 83 235 0.9 7.8 0.01 0.41 0.09 61 1012.6
20200802182904 83 199 2.6 6.1 0.01 0.42 0.09 64 1012.7
20200802182404 83 229 0.9 10.4 0.00 0.42 0.08 64 1012.7
20200802181904 82 145 0.9 10.4 0.00 0.42 0.08 64 1012.8
20200802181404 82 179 4.3 10.4 0.00 0.43 0.08 65 1012.8
20200802180903 82 258 3.5 7.8 0.00 0.44 0.08 64 1012.9
20200802180404 82 258 0.9 7.8 0.00 0.44 0.08 65 1013.0
20200802175904 83 241 4.3 7.8 0.00 0.45 0.08 64 1013.1
20200802175403 82 172 1.7 10.4 0.00 0.46 0.08 67 1013.1
20200802174903 82 275 3.5 10.4 0.00 0.46 0.08 64 1013.1
20200802174403 82 271 4.3 10.4 0.00 0.46 0.08 65 1013.2
20200802173904 82 255 4.3 7.8 0.00 0.46 0.08 64 1013.2
20200802173404 81 225 2.6 7.8 0.01 0.46 0.08 68 1013.3
20200802172904 81 275 2.6 10.4 0.01 0.46 0.08 68 1013.2
20200802172404 81 276 2.6 10.4 0.01 0.46 0.08 66 1013.3
20200802171904 81 255 5.2 10.4 0.01 0.46 0.08 67 1013.3
20200802171403 81 258 2.6 7.0 0.01 0.46 0.08 69 1013.3
20200802170904 81 274 1.7 7.8 0.01 0.46 0.08 69 1013.3
20200802170403 81 173 3.5 7.8 0.01 0.46 0.08 69 1013.3
20200802165904 80 269 1.7 7.8 0.01 0.46 0.08 70 1013.3
20200802165405 80 254 0.9 7.8 0.01 0.46 0.08 70 1013.4
20200802164904 80 251 4.3 7.0 0.01 0.46 0.08 70 1013.4
20200802164404 80 281 0.9 7.0 0.01 0.46 0.08 70 1013.4
20200802163904 80 279 0.0 7.0 0.01 0.46 0.08 72 1013.5
20200802163404 80 170 0.0 7.0 0.00 0.45 0.07 74 1013.6
20200802162904 80 229 0.0 7.0 0.00 0.45 0.07 73 1013.6
20200802162404 79 206 0.9 7.0 0.01 0.45 0.07 73 1013.6
20200802161904 79 228 2.6 7.0 0.01 0.45 0.07 76 1013.6
20200802161404 79 279 1.7 6.1 0.01 0.45 0.07 75 1013.6
20200802160904 79 228 0.0 6.1 0.01 0.45 0.07 76 1013.6
20200802160403 78 275 0.9 6.1 0.01 0.45 0.07 75 1013.7
20200802155904 78 155 0.9 7.0 0.01 0.45 0.07 78 1013.7
20200802155404 77 149 0.0 7.0 0.01 0.45 0.07 80 1013.7
20200802154904 77 270 1.7 7.0 0.01 0.45 0.07 79 1013.7
20200802154403 76 219 0.9 5.2 0.01 0.45 0.07 80 1013.8
20200802153904 76 251 0.0 4.3 0.01 0.45 0.07 80 1013.8
20200802153403 76 252 0.0 7.0 0.01 0.45 0.07 79 1013.9
20200802152903 77 261 2.6 7.0 0.01 0.45 0.07 77 1013.8
20200802152405 77 251 1.7 4.3 0.00 0.44 0.06 78 1013.8
20200802151904 77 206 0.0 6.1 0.00 0.44 0.06 80 1013.8
20200802151404 76 243 0.0 6.1 0.00 0.44 0.06 80 1013.7